HULIANWANG DIGUI 13G

Last updated on Wed Dec 10 2025 00:02:06 GMT+0000 (Coordinated Universal Time)

1 66418U 25258G 25342.84869479 .00000691 00000+0 39265-3 0 9991 2 66418 50.0031 278.3586 0005579 346.1381 13.9377 14.20510798 4109
UTC large
Height (km)
Speed (km/s)
/
Latitude / Longitude
Inclination (degrees)
Orbital Period (minutes)
Azimuth
Elevation
Range (km)
Doppler Factor

Next 0 passes for location: London (51.5072 / 0.1276)

Sorry there are no passes over London.